This is the latest recevied weather packets stored in our database for station/object WX7FGZ-6. If no packets are shown the sender has not sent any weather packets the latest 10 day(s).
| Time | Temp. | Humidity | Pressure | Rain* | Wind** | Luminosity | Snow |
|---|---|---|---|---|---|---|---|
| 1777747824 | 5.56° C | 39% | 1024.3 hPa | 0 mm | - | - | - |
| 1777747524 | 5.56° C | 38% | 1024.7 hPa | 0 mm | - | - | - |
| 1777747224 | 5° C | 40% | 1024.5 hPa | 0 mm | - | - | - |
| 1777746924 | 4.44° C | 42% | 1024.6 hPa | 0 mm | - | - | - |
| 1777746624 | 4.44° C | 38% | 1024.8 hPa | 0 mm | - | - | - |
| 1777746324 | 4.44° C | 42% | 1024.8 hPa | 0 mm | - | - | - |
| 1777746024 | 4.44° C | 40% | 1025.1 hPa | 0 mm | - | - | - |
| 1777745724 | 4.44° C | 37% | 1025 hPa | 0 mm | - | - | - |
| 1777745260 | 4.44° C | 36% | 1025.3 hPa | 0 mm | - | - | - |
| 1777744960 | 4.44° C | 37% | 1025.3 hPa | 0 mm | - | - | - |
| 1777744429 | 3.89° C | 40% | 1024.6 hPa | 0 mm | - | - | - |
| 1777744129 | 3.89° C | 40% | 1024.3 hPa | 0 mm | - | - | - |
| 1777743829 | 3.33° C | 37% | 1024.1 hPa | 0 mm | - | - | - |
| 1777743529 | 3.89° C | 38% | 1023.9 hPa | 0 mm | - | - | - |
| 1777743229 | 3.33° C | 39% | 1023.7 hPa | 0 mm | - | - | - |
| 1777742929 | 3.33° C | 38% | 1023.6 hPa | 0 mm | - | - | - |
| 1777742329 | 2.78° C | 40% | 1023.6 hPa | 0 mm | - | - | - |
| 1777741776 | 2.78° C | 39% | 1023.7 hPa | 0 mm | - | - | - |
| 1777741476 | 2.78° C | 39% | 1023.7 hPa | 0 mm | - | - | - |
| 1777741211 | 2.78° C | 40% | 1023.8 hPa | 0 mm | - | - | - |
| 1777741176 | 2.78° C | 40% | 1023.8 hPa | 0 mm | - | - | - |
| 1777740876 | 2.22° C | 39% | 1023.8 hPa | 0 mm | - | - | - |
| 1777740576 | 2.22° C | 41% | 1024 hPa | 0 mm | - | - | - |
| 1777740276 | 2.22° C | 40% | 1023.9 hPa | 0 mm | - | - | - |
| 1777739977 | 2.22° C | 38% | 1023.7 hPa | 0 mm | - | - | - |
* Rain latest hour (hover to see other rain measurements)
** Current wind speed in m/s (hover to see current wind gust speed)